Location: Albany
(35.0000°S, 118.0000°E)
Time: 00:26:14
(UTC-04:00)

SJ-6B - Visible Passes

Search period start: 02 April 2015 00:00
Search period end: 12 April 2015 00:00
Orbit: 516 x 591 km, 97.8° (Epoch: 31 March)

Date Brightness Start Highest point End Pass type
(mag) Time Alt. Az. Time Alt. Az. Time Alt. Az.
02 Apr 4.0 07:02:59 10° S 07:06:40 44° WSW 07:10:15 10° NNW visible
02 Apr 3.5 17:44:28 10° NNE 17:48:33 63° ESE 17:52:36 10° S visible
03 Apr 3.8 06:59:52 10° S 07:03:35 48° WSW 07:07:13 10° NNW visible
03 Apr 3.7 17:41:26 10° NNE 17:45:28 57° ESE 17:49:30 10° S visible
04 Apr 3.6 06:56:44 10° S 07:00:29 54° WSW 07:04:10 10° NNW visible
04 Apr 3.9 17:38:24 10° NNE 17:42:23 51° ESE 17:46:22 10° S visible
05 Apr 3.3 06:53:36 10° S 06:57:23 60° WSW 07:01:06 10° NNW visible
05 Apr 4.1 17:35:23 10° NNE 17:39:18 46° ESE 17:43:13 10° S visible
06 Apr 3.1 06:50:28 10° S 06:54:17 67° WSW 06:58:02 10° NNW visible
06 Apr 4.3 17:32:21 10° NE 17:36:12 42° ESE 17:40:03 10° S visible
07 Apr 2.9 06:47:20 10° S 06:51:10 74° WSW 06:54:56 10° NNW visible
07 Apr 4.5 17:29:20 10° NE 17:33:06 38° ESE 17:36:53 10° S visible
08 Apr 2.8 06:44:12 10° S 06:48:03 82° WSW 06:51:50 10° NNW visible
08 Apr 4.7 17:26:18 10° NE 17:29:59 35° ESE 17:33:41 10° S visible
09 Apr 2.7 06:41:04 10° SSE 06:44:54 89° E 06:48:42 10° NNW visible
09 Apr 4.9 17:23:17 10° NE 17:26:53 32° ESE 17:30:28 10° S visible
10 Apr 2.6 06:37:55 10° SSE 06:41:46 81° ENE 06:45:34 10° N visible
10 Apr 5.0 17:20:16 10° NE 17:23:45 29° ESE 17:27:15 10° SSE visible
11 Apr 2.6 06:34:47 10° SSE 06:38:37 73° E 06:42:25 10° N visible
11 Apr 5.2 17:17:15 10° NE 17:20:37 27° ESE 17:24:01 10° SSE visible
